Flag for Germany Weather past 2 weeks in Dillenburg, Hesse, Germany

Now
66 °F

Scattered clouds.


Feels Like: 66 °F
Forecast: 50 / 60 °F
Wind: 7 mph from West

Location: Hessen

Current Time: Sep 20, 2014 at 4:05:56 PM

Latest Report: Sep 20, 2014 at 3:20 PM


Visibility: N/A

Pressure: 29.98 "Hg

Humidity: 83%

Dew point: 61 °F

Location of DillenburgLocation

Historic Weather in Dillenburg — Graph

°F

Dillenburg temperature yesterday

Maximum temperature yesterday: 66 °F (at 12:50 PM)
Minimum temperature yesterday: 59 °F (at 7:50 AM)
Average temperature yesterday: 63 °F

Past Weeks' High & Low Weather Summary

 TemperatureHumidityPressure
High73 °F (Sep 6, 1:50 PM)100% (Sep 7, 7:20 AM)30.24 "Hg (Sep 7, 7:20 AM)
Low48 °F (Sep 9, 7:20 AM)56% (Sep 6, 10:50 AM)29.92 "Hg (Sep 17, 5:20 PM)
Average59 °F87%30.04 "Hg
* Reported Sep 5 2:50 PM — Sep 20 2:50 PM, Dillenburg, Weather by CustomWeather, © 2014

Note: Actual official high and low records may vary slightly from our data, if they occured in-between our weather recording intervals... More about our weather records

Advertising

Dillenburg weather history for previous 24 hours

 ConditionsComfort  
Time TempWeatherWind HumidityBarometerVisibility
2:50 PM
Sep 20
66 °FBroken clouds.10 mph83%29.98 "HgN/A
1:50 PM66 °FBroken clouds.8 mph88%30.01 "HgN/A
1:20 PM64 °FSprinkles. Broken clouds.12 mph88%30.01 "HgN/A
12:50 PM64 °FBroken clouds.10 mph94%30.01 "HgN/A
12:20 PM66 °FBroken clouds.8 mph88%30.01 "HgN/A
11:50 AM66 °FBroken clouds.8 mph83%30.01 "HgN/A
11:20 AM66 °FPartly sunny.7 mph83%30.01 "HgN/A
10:50 AM66 °FScattered clouds.7 mph83%30.01 "HgN/A
10:20 AM64 °FPassing clouds.7 mph88%29.98 "HgN/A
9:50 AM64 °FScattered clouds.5 mph88%29.98 "HgN/A
9:20 AM63 °FPartly sunny.6 mph100%29.98 "Hg5 mi
8:50 AM63 °FScattered clouds.6 mph94%29.98 "Hg5 mi
8:20 AM61 °FFog.7 mph100%29.98 "Hg4 mi
7:50 AM59 °FFog.6 mph100%29.98 "Hg4 mi
9:50 PM
Sep 19
64 °FPassing clouds.6 mph88%29.98 "HgN/A
9:20 PM63 °FPassing clouds.6 mph94%29.98 "HgN/A
8:50 PM63 °FClear.5 mph94%29.98 "Hg10 mi
8:20 PM64 °FPassing clouds.6 mph94%29.95 "HgN/A
7:50 PM64 °FPassing clouds.6 mph94%29.95 "HgN/A
7:20 PM63 °FPassing clouds.7 mph100%29.95 "HgN/A
6:50 PM64 °FScattered clouds.6 mph94%29.95 "HgN/A
6:20 PM64 °FScattered clouds.6 mph94%29.95 "HgN/A
5:50 PM64 °FScattered clouds.5 mph94%29.95 "HgN/A
5:20 PM64 °FScattered clouds.5 mph94%29.95 "HgN/A
4:50 PM64 °FPassing clouds.6 mph94%29.95 "HgN/A
4:20 PM66 °FScattered clouds.6 mph88%29.95 "HgN/A
Weather by CustomWeather, © 2014

See weather overviewHow to use our weather pages